Time,TemperatureF,DewpointF,PressureIn,WindDirection,WindDirectionDegrees,WindSpeedMPH,WindSpeedGustMPH,Humidity,HourlyPrecipIn,Conditions,Clouds,dailyrainin,SoftwareType,DateUTC
2013-06-23 00:02:00,77.1,73.0,30.09,ESE,105,3.0,4.0,88,0.03,,,0.04,weatherlink.com 1.10,2013-06-23 04:02:00,
2013-06-23 00:17:00,77.1,73.0,30.08,ESE,105,2.0,4.0,88,0.04,,,0.01,weatherlink.com 1.10,2013-06-23 04:17:00,
2013-06-23 00:32:00,77.1,74.0,30.08,ESE,102,2.0,6.0,89,0.03,,,0.01,weatherlink.com 1.10,2013-06-23 04:32:00,
2013-06-23 00:47:00,77.2,74.0,30.08,ESE,102,2.0,5.0,89,0.03,,,0.01,weatherlink.com 1.10,2013-06-23 04:47:00,
2013-06-23 01:02:00,77.2,74.0,30.08,ESE,102,4.0,5.0,90,0.01,,,0.01,weatherlink.com 1.10,2013-06-23 05:02:00,
2013-06-23 01:17:00,77.2,74.0,30.09,ESE,102,3.0,4.0,90,0.00,,,0.01,weatherlink.com 1.10,2013-06-23 05:17:00,
2013-06-23 01:32:00,77.1,74.0,30.08,ESE,102,0.0,1.0,90,0.00,,,0.01,weatherlink.com 1.10,2013-06-23 05:32:00,
2013-06-23 01:47:00,76.9,74.0,30.08,ESE,102,2.0,4.0,90,0.00,,,0.01,weatherlink.com 1.10,2013-06-23 05:47:00,
2013-06-23 02:02:00,77.0,74.0,30.07,ESE,102,3.0,4.0,91,0.00,,,0.01,weatherlink.com 1.10,2013-06-23 06:02:00,
2013-06-23 02:17:00,76.9,74.0,30.07,ESE,102,0.0,0.0,90,0.00,,,0.01,weatherlink.com 1.10,2013-06-23 06:17:00,
2013-06-23 02:32:00,76.7,74.0,30.07,ESE,102,0.0,0.0,91,0.00,,,0.01,weatherlink.com 1.10,2013-06-23 06:32:00,
2013-06-23 02:47:00,76.6,74.0,30.06,ESE,102,0.0,1.0,91,0.00,,,0.01,weatherlink.com 1.10,2013-06-23 06:47:00,
2013-06-23 03:02:00,76.5,74.0,30.06,ESE,102,2.0,3.0,91,0.00,,,0.01,weatherlink.com 1.10,2013-06-23 07:02:00,
2013-06-23 03:17:00,76.5,74.0,30.06,ESE,102,2.0,2.0,91,0.00,,,0.01,weatherlink.com 1.10,2013-06-23 07:17:00,
2013-06-23 03:32:00,76.4,74.0,30.06,ESE,102,2.0,3.0,91,0.00,,,0.01,weatherlink.com 1.10,2013-06-23 07:32:00,
2013-06-23 03:47:00,76.1,73.0,30.06,ESE,102,3.0,4.0,91,0.00,,,0.01,weatherlink.com 1.10,2013-06-23 07:47:00,
2013-06-23 04:02:00,76.0,74.0,30.06,ESE,102,2.0,5.0,92,0.00,,,0.01,weatherlink.com 1.10,2013-06-23 08:02:00,
2013-06-23 04:17:00,75.8,73.0,30.06,ENE,60,5.0,7.0,92,0.00,,,0.01,weatherlink.com 1.10,2013-06-23 08:17:00,
2013-06-23 04:32:00,75.6,73.0,30.06,ENE,59,2.0,5.0,92,0.00,,,0.01,weatherlink.com 1.10,2013-06-23 08:32:00,
2013-06-23 04:47:00,75.5,73.0,30.06,ENE,59,2.0,4.0,92,0.00,,,0.01,weatherlink.com 1.10,2013-06-23 08:47:00,
2013-06-23 05:02:00,75.5,73.0,30.06,ENE,59,3.0,6.0,92,0.00,,,0.01,weatherlink.com 1.10,2013-06-23 09:02:00,
2013-06-23 05:17:00,75.4,73.0,30.06,ENE,59,3.0,6.0,92,0.00,,,0.01,weatherlink.com 1.10,2013-06-23 09:17:00,
2013-06-23 05:32:00,75.3,73.0,30.06,ENE,59,6.0,6.0,93,0.00,,,0.01,weatherlink.com 1.10,2013-06-23 09:32:00,
2013-06-23 05:47:00,75.3,73.0,30.06,ENE,58,5.0,7.0,93,0.00,,,0.01,weatherlink.com 1.10,2013-06-23 09:47:00,
2013-06-23 06:02:00,75.2,73.0,30.06,ENE,58,4.0,6.0,93,0.00,,,0.01,weatherlink.com 1.10,2013-06-23 10:02:00,
2013-06-23 06:17:00,75.2,73.0,30.06,ENE,58,4.0,6.0,93,0.00,,,0.01,weatherlink.com 1.10,2013-06-23 10:17:00,
2013-06-23 06:32:00,75.4,73.0,30.06,ENE,58,3.0,6.0,93,0.00,,,0.01,weatherlink.com 1.10,2013-06-23 10:32:00,
2013-06-23 06:47:00,75.6,74.0,30.06,ENE,62,4.0,7.0,94,0.00,,,0.01,weatherlink.com 1.10,2013-06-23 10:47:00,
2013-06-23 07:02:00,75.8,74.0,30.07,ENE,62,1.0,6.0,94,0.00,,,0.01,weatherlink.com 1.10,2013-06-23 11:02:00,
2013-06-23 07:17:00,75.8,74.0,30.07,ENE,62,5.0,6.0,94,0.00,,,0.01,weatherlink.com 1.10,2013-06-23 11:17:00,
2013-06-23 07:32:00,76.0,74.0,30.07,ENE,62,5.0,8.0,94,0.00,,,0.01,weatherlink.com 1.10,2013-06-23 11:32:00,
2013-06-23 07:47:00,76.2,74.0,30.09,ENE,62,3.0,7.0,94,0.00,,,0.01,weatherlink.com 1.10,2013-06-23 11:47:00,
2013-06-23 08:02:00,76.5,75.0,30.09,ENE,58,3.0,8.0,94,0.00,,,0.01,weatherlink.com 1.10,2013-06-23 12:02:00,
2013-06-23 08:17:00,76.9,75.0,30.09,ENE,58,5.0,8.0,93,0.00,,,0.01,weatherlink.com 1.10,2013-06-23 12:17:00,
2013-06-23 08:32:00,77.6,76.0,30.09,ENE,68,2.0,8.0,93,0.00,,,0.01,weatherlink.com 1.10,2013-06-23 12:32:00,
2013-06-23 08:47:00,78.4,76.0,30.10,ENE,57,1.0,7.0,92,0.00,,,0.01,weatherlink.com 1.10,2013-06-23 12:47:00,
2013-06-23 09:02:00,79.4,77.0,30.10,NE,52,6.0,9.0,91,0.00,,,0.01,weatherlink.com 1.10,2013-06-23 13:02:00,
2013-06-23 09:17:00,80.3,77.0,30.10,East,100,1.0,8.0,90,0.00,,,0.01,weatherlink.com 1.10,2013-06-23 13:17:00,
2013-06-23 09:32:00,81.3,78.0,30.11,NE,53,5.0,13.0,89,0.00,,,0.01,weatherlink.com 1.10,2013-06-23 13:32:00,
2013-06-23 09:47:00,82.1,78.0,30.11,ESE,113,7.0,13.0,87,0.00,,,0.01,weatherlink.com 1.10,2013-06-23 13:47:00,
2013-06-23 10:18:00,83.2,78.0,30.10,ESE,104,3.0,11.0,83,0.00,,,0.01,weatherlink.com 1.10,2013-06-23 14:18:00,
2013-06-23 10:33:00,84.5,78.0,30.10,East,85,7.0,11.0,80,0.00,,,0.01,weatherlink.com 1.10,2013-06-23 14:33:00,
2013-06-23 10:48:00,85.0,77.0,30.10,SE,129,7.0,11.0,77,0.00,,,0.01,weatherlink.com 1.10,2013-06-23 14:48:00,
2013-06-23 11:03:00,85.7,77.0,30.11,East,93,6.0,13.0,76,0.00,,,0.01,weatherlink.com 1.10,2013-06-23 15:03:00,
2013-06-23 11:18:00,86.2,78.0,30.11,East,95,6.0,10.0,76,0.00,,,0.01,weatherlink.com 1.10,2013-06-23 15:18:00,
2013-06-23 11:33:00,86.6,77.0,30.10,ESE,104,0.0,12.0,74,0.00,,,0.01,weatherlink.com 1.10,2013-06-23 15:33:00,
2013-06-23 11:48:00,87.7,78.0,30.10,ESE,122,4.0,7.0,72,0.00,,,0.01,weatherlink.com 1.10,2013-06-23 15:48:00,
2013-06-23 12:18:00,89.2,78.0,30.10,ENE,58,0.0,10.0,69,0.00,,,0.01,weatherlink.com 1.10,2013-06-23 16:18:00,
2013-06-23 12:33:00,89.9,77.0,30.10,SE,135,0.0,8.0,65,0.00,,,0.01,weatherlink.com 1.10,2013-06-23 16:33:00,
2013-06-23 12:48:00,89.3,76.0,30.10,SE,145,5.0,8.0,64,0.00,,,0.01,weatherlink.com 1.10,2013-06-23 16:48:00,
2013-06-23 13:03:00,88.6,75.0,30.11,SE,143,4.0,8.0,65,0.00,,,0.01,weatherlink.com 1.10,2013-06-23 17:03:00,
2013-06-23 13:18:00,88.8,77.0,30.11,SW,236,2.0,9.0,68,0.00,,,0.01,weatherlink.com 1.10,2013-06-23 17:18:00,
2013-06-23 13:33:00,86.0,76.0,30.12,ESE,103,3.0,20.0,73,0.00,,,0.01,weatherlink.com 1.10,2013-06-23 17:33:00,
2013-06-23 13:48:00,83.5,76.0,30.12,ESE,109,2.0,7.0,78,0.01,,,0.02,weatherlink.com 1.10,2013-06-23 17:48:00,
2013-06-23 14:03:00,81.9,76.0,30.13,NW,304,5.0,7.0,81,0.01,,,0.02,weatherlink.com 1.10,2013-06-23 18:03:00,
2013-06-23 14:18:00,80.0,75.0,30.13,WNW,301,7.0,8.0,84,0.01,,,0.02,weatherlink.com 1.10,2013-06-23 18:18:00,
2013-06-23 14:33:00,79.2,75.0,30.12,WNW,302,1.0,5.0,86,0.01,,,0.02,weatherlink.com 1.10,2013-06-23 18:33:00,
2013-06-23 14:48:00,79.1,75.0,30.11,WNW,302,1.0,3.0,88,0.00,,,0.02,weatherlink.com 1.10,2013-06-23 18:48:00,
2013-06-23 15:03:00,79.3,76.0,30.10,WNW,302,0.0,2.0,88,0.00,,,0.02,weatherlink.com 1.10,2013-06-23 19:03:00,
2013-06-23 15:18:00,79.4,75.0,30.09,SE,127,3.0,8.0,87,0.00,,,0.02,weatherlink.com 1.10,2013-06-23 19:18:00,
2013-06-23 15:33:00,79.2,75.0,30.09,ESE,122,0.0,5.0,87,0.01,,,0.03,weatherlink.com 1.10,2013-06-23 19:33:00,
2013-06-23 15:48:00,79.2,75.0,30.10,ESE,122,0.0,3.0,86,0.01,,,0.03,weatherlink.com 1.10,2013-06-23 19:48:00,
2013-06-23 16:03:00,79.3,75.0,30.09,ESE,122,2.0,3.0,87,0.02,,,0.04,weatherlink.com 1.10,2013-06-23 20:03:00,
2013-06-23 16:18:00,79.8,76.0,30.09,ESE,111,1.0,5.0,88,0.02,,,0.04,weatherlink.com 1.10,2013-06-23 20:18:00,
2013-06-23 16:33:00,80.1,76.0,30.08,ESE,111,2.0,4.0,88,0.01,,,0.04,weatherlink.com 1.10,2013-06-23 20:33:00,
2013-06-23 16:48:00,80.2,76.0,30.08,ENE,74,5.0,7.0,88,0.01,,,0.04,weatherlink.com 1.10,2013-06-23 20:48:00,
2013-06-23 17:03:00,80.4,77.0,30.07,ENE,74,1.0,3.0,88,0.00,,,0.04,weatherlink.com 1.10,2013-06-23 21:03:00,
2013-06-23 17:18:00,80.6,77.0,30.08,ENE,74,3.0,4.0,88,0.00,,,0.04,weatherlink.com 1.10,2013-06-23 21:18:00,
2013-06-23 17:33:00,81.1,77.0,30.08,NE,49,7.0,8.0,87,0.00,,,0.04,weatherlink.com 1.10,2013-06-23 21:33:00,
2013-06-23 17:48:00,81.3,77.0,30.08,NE,49,5.0,7.0,86,0.00,,,0.04,weatherlink.com 1.10,2013-06-23 21:48:00,
2013-06-23 18:03:00,81.7,77.0,30.08,NE,54,3.0,6.0,85,0.00,,,0.04,weatherlink.com 1.10,2013-06-23 22:03:00,
2013-06-23 18:18:00,82.0,77.0,30.07,NE,54,2.0,7.0,84,0.00,,,0.04,weatherlink.com 1.10,2013-06-23 22:18:00,
2013-06-23 18:33:00,82.3,77.0,30.08,NE,54,1.0,3.0,84,0.00,,,0.04,weatherlink.com 1.10,2013-06-23 22:33:00,
2013-06-23 18:48:00,82.6,77.0,30.08,NE,54,0.0,4.0,83,0.00,,,0.04,weatherlink.com 1.10,2013-06-23 22:48:00,
2013-06-23 19:03:00,82.5,77.0,30.08,NE,54,4.0,5.0,83,0.00,,,0.04,weatherlink.com 1.10,2013-06-23 23:03:00,
2013-06-23 19:18:00,82.7,78.0,30.08,NE,54,1.0,4.0,84,0.00,,,0.04,weatherlink.com 1.10,2013-06-23 23:18:00,
2013-06-23 19:33:00,82.5,77.0,30.09,NE,54,0.0,4.0,83,0.00,,,0.04,weatherlink.com 1.10,2013-06-23 23:33:00,
2013-06-23 19:48:00,82.4,77.0,30.09,NE,54,2.0,4.0,83,0.00,,,0.04,weatherlink.com 1.10,2013-06-23 23:48:00,
2013-06-23 20:03:00,82.1,77.0,30.09,NE,43,6.0,7.0,84,0.00,,,0.04,weatherlink.com 1.10,2013-06-24 00:03:00,
2013-06-23 20:18:00,81.3,76.0,30.09,NE,41,4.0,7.0,83,0.00,,,0.04,weatherlink.com 1.10,2013-06-24 00:18:00,
2013-06-23 20:33:00,80.8,76.0,30.09,NE,45,5.0,9.0,84,0.00,,,0.04,weatherlink.com 1.10,2013-06-24 00:33:00,
2013-06-23 20:48:00,80.4,76.0,30.10,NE,45,6.0,9.0,85,0.00,,,0.04,weatherlink.com 1.10,2013-06-24 00:48:00,
2013-06-23 21:03:00,80.1,75.0,30.10,NE,47,3.0,7.0,85,0.00,,,0.04,weatherlink.com 1.10,2013-06-24 01:03:00,
2013-06-23 21:18:00,79.8,75.0,30.11,NE,47,3.0,5.0,86,0.00,,,0.04,weatherlink.com 1.10,2013-06-24 01:18:00,
2013-06-23 21:33:00,79.4,75.0,30.11,NE,47,4.0,6.0,87,0.00,,,0.04,weatherlink.com 1.10,2013-06-24 01:33:00,
2013-06-23 21:48:00,79.1,75.0,30.11,NE,47,3.0,5.0,87,0.00,,,0.04,weatherlink.com 1.10,2013-06-24 01:48:00,
2013-06-23 22:03:00,78.7,75.0,30.11,NE,47,3.0,8.0,87,0.00,,,0.04,weatherlink.com 1.10,2013-06-24 02:03:00,
2013-06-23 22:18:00,78.4,74.0,30.11,NE,47,5.0,7.0,87,0.00,,,0.04,weatherlink.com 1.10,2013-06-24 02:18:00,
2013-06-23 22:33:00,78.2,74.0,30.12,NE,47,5.0,7.0,88,0.00,,,0.04,weatherlink.com 1.10,2013-06-24 02:33:00,
2013-06-23 22:48:00,78.0,74.0,30.12,NE,47,4.0,8.0,88,0.00,,,0.04,weatherlink.com 1.10,2013-06-24 02:48:00,
2013-06-23 23:03:00,77.8,74.0,30.12,NE,47,6.0,6.0,88,0.00,,,0.04,weatherlink.com 1.10,2013-06-24 03:03:00,
2013-06-23 23:18:00,77.7,74.0,30.12,NE,47,5.0,6.0,88,0.00,,,0.04,weatherlink.com 1.10,2013-06-24 03:18:00,
2013-06-23 23:33:00,77.7,74.0,30.13,NE,47,4.0,9.0,88,0.00,,,0.04,weatherlink.com 1.10,2013-06-24 03:33:00,
2013-06-23 23:48:00,77.6,74.0,30.13,NE,47,5.0,7.0,88,0.00,,,0.04,weatherlink.com 1.10,2013-06-24 03:48:00,